Regional Weather Roundup
Issued by NWS

Home | Current Version | Previous Version | Text Only | Print | Product List | Glossary On
Versions: 1 2 3 4 5 6 7 8 9 10 11 12 13 14 15 16 17 18 19 20 21 22 23 24 25 26 27 28 29 30 31 32 33 34 35 36 37 38 39 40 41 42 43 44 45 46 47 48 49 50
000
ASUS43 KTOP 301108
RWRKS

WEATHER ROUNDUP FOR KANSAS
NATIONAL WEATHER SERVICE GOODLAND KS
600 AM CDT TUE AUG 30 2016

NOTE:  "FAIR" INDICATES FEW OR NO CLOUDS BELOW 12,000 FEET WITH NO
SIGNIFICANT WEATHER AND/OR OBSTRUCTIONS TO VISIBILITY.

KSZ001>006-013>018-027>032-041>047-301200-
NORTHWEST KANSAS

CITY           SKY/WX    TMP DP  RH WIND       PRES   REMARKS
GOODLAND       FOG       59  58  96 CALM      30.25S VSB 1/4
HAYS           PTCLDY    66  59  77 NE3       30.20S
HILL CITY      CLOUDY    65  64  97 CALM      30.21R
RUSSELL        FOG       67  66  97 NE6       30.18S VSB 1/2
$$

KSZ061>065-074>080-084>089-301200-
SOUTHWEST KANSAS

CITY           SKY/WX    TMP DP  RH WIND       PRES   REMARKS
DODGE CITY     CLOUDY    67  66  97 CALM      30.21S FOG
ELKHART          N/A     65  61  87 W3          N/A
GARDEN CITY    PTCLDY    65  64  97 E3        30.22S
GREAT BEND     CLOUDY    66  61  82 N3        30.19R
LIBERAL        CLOUDY    68  63  83 NW3       30.22S
PRATT          CLOUDY    66  65  97 N3        30.18S
$$

KSZ066>073-081>083-090>101-301200-
SOUTHEAST KANSAS

CITY           SKY/WX    TMP DP  RH WIND       PRES   REMARKS
CHANUTE        PTCLDY    73  71  93 NE5       30.13R
COFFEYVILLE    CLEAR     70  69  97 N3        30.12R
HUTCHINSON     CLOUDY    72  69  90 CALM      30.16R
MEDICINE LODGE   N/A     69  67  93 CALM      30.15S
NEWTON         MOCLDY    70  69  97 NE5       30.17R
PARSONS        CLEAR     69  68  96 CALM      30.13R
WICHITA INTL   MOCLDY    74  71  91 NE5       30.14R
WICHITA JABRA  MOCLDY    69  69 100 NE3       30.15R FOG
WICHITA MCCONL CLEAR     71  69  92 E3        30.14R
WINFIELD       PTCLDY    70  68  93 N3        30.14R
$$

KSZ007>012-019>026-033>040-048>060-102>105-301200-
NORTHEAST KANSAS

CITY           SKY/WX    TMP DP  RH WIND       PRES   REMARKS
CONCORDIA      CLOUDY    68  66  93 E5        30.17F
EMPORIA        CLOUDY    71  70  96 CALM      30.15R
LAWRENCE       PTCLDY    70  70 100 CALM      30.15S
MANHATTAN      PTCLDY    70  68  93 NE3       30.16R
MARYSVILLE     MOCLDY    68  68 100 CALM      30.18R
OLATHE IND     CLOUDY    71  70  96 W3        30.15R
OLATHE EXE     CLOUDY    69  69 100 CALM      30.15R
SALINA         CLOUDY    72  69  90 N8        30.17S
TOPEKA BILLARD PTCLDY    71  68  90 CALM      30.15S
TOPEKA FORBES  PTCLDY    72  69  90 NE5       30.15S
$$




USA.gov is the U.S. government's official web portal to all federal, state and local government web resources and services.